Starlink 11361

operational
NORAD ID: 61585 Int'l Des: 2024-187 Owner: SPXS Country: US Constellation: starlink
LEOCIRCULAR

关于 Starlink 11361

正在加载描述...

实时位置

正在加载3D地球...

即将过境

高度历史

Altitude vs Time

uPlot chart will show altitude changes over time

两行轨道根数

1 61585U 24187M 25259.77809645 -.00001616 00000-0 -84924-5 0 9994
2 61585 53.1590 73.7108 0000660 36.1855 323.9207 15.69704009 53438
Epoch: Sep 16, 2025 • Age: 33 hours

当前状态

高度 373.1 km
速度 7.69 km/s
星下点 -39.49°S, 128.77°W
发射日期 Oct 18, 2024
运行时间 0.9 years
类型 internet

技术详情

分类 Payload
质量 960.00 kg
干质量 910.00 kg
总质量 960.00 kg
长度 0.30 m
直径 4.10 m
跨度 29.00 m
形状 Box + pan
制造商 SPXS
平台类型 Starlink V2MD
阶段状态 In Orbit
所有者/国家 SPXS/US

大型星座

Loading constellations...